DW3888 Weather Reports


Display with metric or nautical units.
time (UTC)temp
F
wind
direction
speed
MPH
gust
MPH
rain 1hr
in
rain 24hr
in
rain mn
in
humidity
%
barometer
mb
20240220224811 48 0 0.0 0.0 0.00 0.00 0.00 50 1027.8
20240220223811 49 0 0.0 0.0 0.00 0.00 0.00 49 1027.7
20240220222811 50 0 0.0 0.0 0.00 0.00 0.00 49 1027.7
20240220221811 50 0 0.0 0.0 0.00 0.00 0.00 48 1027.6
20240220220811 51 0 0.0 0.0 0.00 0.00 0.00 47 1027.6
20240220215810 51 0 0.0 5.0 0.00 0.00 0.00 46 1027.5
20240220214811 52 0 1.0 6.0 0.00 0.00 0.00 45 1027.5
20240220213810 53 0 1.0 6.0 0.00 0.00 0.00 44 1027.4
20240220212811 53 0 2.0 5.0 0.00 0.00 0.00 43 1027.4
20240220210811 55 0 1.0 7.0 0.00 0.00 0.00 42 1027.2
20240220205810 55 0 2.0 12.0 0.00 0.00 0.00 42 1027.3
20240220204810 55 0 0.0 6.0 0.00 0.00 0.00 42 1027.3
20240220202811 55 0 1.0 5.0 0.00 0.00 0.00 42 1027.2
20240220201811 55 0 2.0 6.0 0.00 0.00 0.00 42 1027.3
20240220200811 55 0 2.0 5.0 0.00 0.00 0.00 43 1027.5
20240220194810 54 0 2.0 6.0 0.00 0.00 0.00 43 1027.8
20240220193810 54 0 1.0 6.0 0.00 0.00 0.00 43 1027.7
20240220192810 55 0 3.0 7.0 0.00 0.00 0.00 43 1027.8
20240220191810 55 0 2.0 7.0 0.00 0.00 0.00 43 1027.9
20240220190810 54 0 3.0 7.0 0.00 0.00 0.00 44 1028.1
20240220185809 54 0 0.0 3.0 0.00 0.00 0.00 44 1028.2
20240220184809 53 0 0.0 6.0 0.00 0.00 0.00 44 1028.3
20240220183810 53 0 0.0 5.0 0.00 0.00 0.00 45 1028.4
20240220182809 52 0 2.0 6.0 0.00 0.00 0.00 45 1028.6
20240220181809 52 0 2.0 5.0 0.00 0.00 0.00 44 1028.7
20240220175809 52 0 0.0 8.0 0.00 0.00 0.00 44 1028.9
20240220174809 52 0 1.0 3.0 0.00 0.00 0.00 45 1029.0
20240220173809 52 0 0.0 7.0 0.00 0.00 0.00 46 1029.1
20240220172810 52 0 0.0 9.0 0.00 0.00 0.00 46 1029.4
20240220171809 52 0 2.0 10.0 0.00 0.00 0.00 47 1029.5
20240220170809 51 0 0.0 0.0 0.00 0.00 0.00 48 1029.6
20240220165811 50 0 0.0 0.0 0.00 0.00 0.00 48 1029.7
20240220164811 50 0 0.0 0.0 0.00 0.00 0.00 50 1029.8
20240220163811 50 0 0.0 0.0 0.00 0.00 0.00 51 1029.7
20240220162811 49 0 0.0 0.0 0.00 0.00 0.00 52 1029.9
20240220161811 49 0 1.0 5.0 0.00 0.00 0.00 53 1030.0
20240220160810 48 0 2.0 10.0 0.00 0.00 0.00 55 1030.2
20240220155811 47 0 3.0 5.0 0.00 0.00 0.00 55 1030.3
20240220154811 47 0 2.0 6.0 0.00 0.00 0.00 58 1030.3
20240220153811 46 0 1.0 6.0 0.00 0.00 0.00 60 1030.4
20240220152812 45 0 0.0 6.0 0.00 0.00 0.00 62 1030.4
20240220151810 45 0 0.0 0.0 0.00 0.00 0.00 64 1030.5
20240220150811 44 0 2.0 7.0 0.00 0.00 0.00 66 1030.5
20240220145811 44 0 1.0 6.0 0.00 0.00 0.00 70 1030.5
20240220143810 42 0 0.0 7.0 0.00 0.00 0.00 76 1030.5
20240220142810 41 0 0.0 0.0 0.00 0.00 0.00 79 1030.6
20240220141810 40 0 0.0 0.0 0.00 0.00 0.00 82 1030.5
20240220135810 38 0 0.0 0.0 0.00 0.00 0.00 85 1030.4
20240220134811 37 0 0.0 0.0 0.00 0.00 0.00 86 1030.3
20240220133811 36 0 0.0 0.0 0.00 0.00 0.00 87 1030.3
20240220131809 33 0 0.0 0.0 0.00 0.00 0.00 86 1030.0
20240220130810 31 0 0.0 0.0 0.00 0.00 0.00 86 1029.8
20240220125810 30 0 0.0 0.0 0.00 0.00 0.00 86 1029.6
20240220124810 29 0 0.0 0.0 0.00 0.00 0.00 86 1029.5
20240220120810 28 0 0.0 0.0 0.00 0.00 0.00 85 1029.0
20240220115810 28 0 0.0 0.0 0.00 0.00 0.00 85 1028.8
20240220113809 28 0 0.0 0.0 0.00 0.00 0.00 85 1028.7
20240220112810 28 0 0.0 0.0 0.00 0.00 0.00 85 1028.5
20240220111810 29 0 0.0 0.0 0.00 0.00 0.00 84 1028.4
20240220110809 29 0 0.0 0.0 0.00 0.00 0.00 84 1028.3
20240220105811 29 0 0.0 0.0 0.00 0.00 0.00 84 1028.1
20240220104811 29 0 0.0 0.0 0.00 0.00 0.00 84 1028.0
20240220103811 29 0 0.0 0.0 0.00 0.00 0.00 84 1027.8
20240220102812 29 0 0.0 0.0 0.00 0.00 0.00 83 1027.7
20240220101811 29 0 0.0 0.0 0.00 0.00 0.00 83 1027.6
20240220100811 29 0 0.0 0.0 0.00 0.00 0.00 83 1027.4
20240220095812 29 0 0.0 0.0 0.00 0.00 0.00 83 1027.1
20240220094810 29 0 0.0 0.0 0.00 0.00 0.00 83 1027.0
20240220093811 29 0 0.0 0.0 0.00 0.00 0.00 82 1027.0
20240220092811 29 0 0.0 0.0 0.00 0.00 0.00 82 1026.9
20240220091810 30 0 0.0 0.0 0.00 0.00 0.00 82 1026.7
20240220090811 29 0 0.0 0.0 0.00 0.00 0.00 81 1026.5
20240220085811 29 0 0.0 0.0 0.00 0.00 0.00 81 1026.3
20240220084810 29 0 0.0 0.0 0.00 0.00 0.00 80 1026.2
20240220083810 30 0 0.0 0.0 0.00 0.00 0.00 80 1026.1
20240220082810 30 0 0.0 0.0 0.00 0.00 0.00 80 1026.1
20240220081810 30 0 0.0 0.0 0.00 0.00 0.00 79 1026.1
20240220080811 30 0 0.0 0.0 0.00 0.00 0.00 79 1026.1
20240220075811 30 0 0.0 0.0 0.00 0.00 0.00 78 1026.1
20240220074810 31 0 0.0 0.0 0.00 0.00 0.00 78 1026.1
20240220071810 31 0 0.0 0.0 0.00 0.00 0.00 76 1026.0
20240220065810 32 0 0.0 0.0 0.00 0.00 0.00 74 1026.0
20240220064809 32 0 0.0 0.0 0.00 0.00 0.00 74 1026.0
20240220063810 32 0 0.0 0.0 0.00 0.00 0.00 73 1026.0
20240220062810 33 0 0.0 0.0 0.00 0.00 0.00 72 1025.9
20240220061810 33 0 0.0 0.0 0.00 0.00 0.00 72 1025.8
20240220060810 34 0 0.0 0.0 0.00 0.00 0.00 71 1025.7
20240220055810 34 0 0.0 0.0 0.00 0.00 0.00 71 1025.7
20240220054809 35 0 0.0 0.0 0.00 0.00 0.00 71 1025.7
20240220052809 35 0 0.0 0.0 0.00 0.00 0.00 69 1025.5
20240220051810 34 0 0.0 0.0 0.00 0.00 0.00 68 1025.5
20240220050816 35 0 0.0 0.0 0.00 0.00 0.00 67 1025.5
20240220045811 35 0 0.0 0.0 0.00 0.00 0.00 66 1025.5
20240220044811 36 0 0.0 0.0 0.00 0.00 0.00 66 1025.4
20240220043811 37 0 0.0 0.0 0.00 0.00 0.00 66 1025.4
20240220041811 36 0 0.0 0.0 0.00 0.00 0.00 66 1025.3
20240220035811 35 0 0.0 0.0 0.00 0.00 0.00 68 1025.3
20240220034812 35 0 0.0 0.0 0.00 0.00 0.00 68 1025.2
20240220033811 35 0 0.0 0.0 0.00 0.00 0.00 68 1025.1
20240220032810 35 0 0.0 0.0 0.00 0.00 0.00 68 1025.0
20240220031811 36 0 0.0 0.0 0.00 0.00 0.00 67 1025.0
20240220030810 36 0 0.0 0.0 0.00 0.00 0.00 67 1024.9
20240220024810 36 0 0.0 0.0 0.00 0.00 0.00 67 1025.1
20240220023810 36 0 0.0 0.0 0.00 0.00 0.00 67 1025.0
20240220022811 36 0 0.0 0.0 0.00 0.00 0.00 67 1025.1
20240220021810 36 0 0.0 0.0 0.00 0.00 0.00 66 1025.1
20240220020811 36 0 0.0 0.0 0.00 0.00 0.00 65 1025.1
20240220014810 37 0 0.0 0.0 0.00 0.00 0.00 62 1025.0
20240220013811 38 0 0.0 0.0 0.00 0.00 0.00 61 1024.8
20240220012810 38 0 0.0 0.0 0.00 0.00 0.00 61 1024.7
20240220011809 39 0 0.0 0.0 0.00 0.00 0.00 61 1024.6
20240220010810 39 0 0.0 0.0 0.00 0.00 0.00 60 1024.4
20240220005810 39 0 0.0 0.0 0.00 0.00 0.00 59 1024.4
20240220004810 40 0 0.0 0.0 0.00 0.00 0.00 58 1024.3
20240220003810 40 0 0.0 0.0 0.00 0.00 0.00 60 1024.1
20240220002810 41 0 0.0 0.0 0.00 0.00 0.00 56 1023.9
20240220001809 42 0 0.0 0.0 0.00 0.00 0.00 55 1023.8
20240220000809 42 0 0.0 0.0 0.00 0.00 0.00 53 1023.7
20240219235809 43 0 0.0 0.0 0.00 0.00 0.00 51 1023.7
20240219232809 45 0 0.0 0.0 0.00 0.00 0.00 48 1023.4
20240219231809 46 0 0.0 0.0 0.00 0.00 0.00 46 1023.3
20240219230809 47 0 0.0 0.0 0.00 0.00 0.00 45 1023.2